Find Starlink 3374

NORAD ID: 51112 Int'l Des: 2022-005 Owner: SPXS Country: US Constellation: starlink operational
LEOCIRCULAR

現在のビュー

3D地球を読み込み中...

About Starlink 3374

Starlink 3374 (NORAD 51112) is a starlink constellation satellite (v1.5) launched Jan 19, 2022 by SPXS of US. It operates in LEO, CIRCULAR orbit with a mass of 297.00 kg.

Starlink 3374について

説明を読み込み中...

次回通過

Passes for default location (London). Set your location on the main map for personalized predictions.

高度履歴

Loading altitude history...

軌道要素

1 51112U 22005J 26171.36843142 .00000459 00000-0 46953-4 0 9996
2 51112 53.1593 188.0338 0001225 81.1113 279.0017 15.08833691244385
Epoch: Jun 20, 2026 • Age: 28 hours

現在のステータス

高度 540.4 km
速度 7.59 km/s
衛星直下点 2.49°N, 98.48°W
打ち上げ日 Jan 19, 2022
運用期間 4.4 years
タイプ internet

技術仕様

分類 Payload
質量 297.00 kg
乾燥質量 275.00 kg
総質量 297.00 kg
長さ 0.20 m
直径 2.80 m
スパン 9.00 m
形状 Box + pan
製造者 SPXS
バスタイプ Starlink
フェーズステータス In Orbit
所有者/国 SPXS/US

Most Searched